Bogalusa, LA

8:51 AM CDT on May 25, 2017 (GMT -0500)
Carr Memorial

Weather History for KBXA - November, 2012

Change the Weather History Date:

Monday, November 19, 2012

  Actual Average Record
Temperature  
Mean Temperature 53 °F -  
Max Temperature 69 °F 71 °F 74 °F (2015)
Min Temperature 37 °F 46 °F 24 °F (2014)
Degree Days  
Heating Degree Days 12    
Growing Degree Days 3 (Base 50)    
Moisture  
Dew Point 44 °F    
Average Humidity 83    
Maximum Humidity 100    
Minimum Humidity 40    
Precipitation  
Precipitation 0.00 in - - ()
Sea Level Pressure  
Sea Level Pressure 30.26 in    
Wind  
Wind Speed 0 mph ()    
Max Wind Speed 5 mph    
Max Gust Speed -    
Visibility 9.9 miles    
Events      
Averages and records for this station are not official NWS values.
T = Trace of Precipitation, MM = Missing Value Source: Averaged Metar Reports

Daily Weather History Graph

Daily Weather History Graph

Search for Another Location

Airport or City:

Trip Planner

Search our weather history database for the weather conditions in past years. The results will help you decide how hot, cold, wet, or windy it might be!

Date:

Astronomy

Nov. 19, 2012 Rise Set
Actual Time 6:29 AM CST 4:59 PM CST
Civil Twilight 6:04 AM CST 5:25 PM CST
Nautical Twilight 5:34 AM CST 5:54 PM CST
Astronomical Twilight 5:05 AM CST 6:23 PM CST
Moon 11:41 AM CST (11/19) 11:16 PM CST (11/19)
Length of Visible Light 11h 21m
Length of Day
10h 30m
Waxing Crescent, 41% of the Moon is Illuminated
Nov 19
Waxing Crescent
Nov 20
First Quarter
Nov 28
Full
Dec 6
Last Quarter
Dec 13
New

Hourly Weather History & Observations

Time (CST) Temp. Dew Point Humidity Pressure Visibility Wind Dir Wind Speed Gust Speed Precip Events Conditions
12:15 AM 41.2 °F 41.2 °F 100% 30.31 in 10.0 mi Calm Calm - N/A   Unknown
12:35 AM 40.6 °F 40.6 °F 100% 30.30 in 7.0 mi Calm Calm - N/A   Unknown
12:55 AM 40.6 °F 40.6 °F 100% 30.31 in 10.0 mi Calm Calm - N/A   Unknown
1:15 AM 40.6 °F 40.6 °F 100% 30.31 in 10.0 mi Calm Calm - N/A   Unknown
1:35 AM 39.6 °F 39.6 °F 100% 30.31 in 10.0 mi Calm Calm - N/A   Unknown
2:15 AM 40.1 °F 40.1 °F 100% 30.29 in 10.0 mi Calm Calm - N/A   Unknown
2:35 AM 39.9 °F 39.9 °F 100% 30.29 in 10.0 mi Calm Calm - N/A   Unknown
3:15 AM 39.0 °F 39.0 °F 100% 30.28 in 10.0 mi Calm Calm - N/A   Unknown
3:35 AM 38.5 °F 38.5 °F 100% 30.28 in 10.0 mi Calm Calm - N/A   Unknown
3:55 AM 39.0 °F 39.0 °F 100% 30.28 in 10.0 mi Calm Calm - N/A   Unknown
4:15 AM 39.6 °F 39.6 °F 100% 30.27 in 10.0 mi Calm Calm - N/A   Unknown
4:35 AM 38.8 °F 38.8 °F 100% 30.28 in 10.0 mi Calm Calm - N/A   Unknown
4:55 AM 38.1 °F 38.1 °F 100% 30.28 in 10.0 mi Calm Calm - N/A   Unknown
5:15 AM 38.7 °F 38.7 °F 100% 30.29 in 10.0 mi Calm Calm - N/A   Unknown
5:35 AM 37.8 °F 37.8 °F 100% 30.28 in 10.0 mi Calm Calm - N/A   Unknown
5:55 AM 38.5 °F 38.5 °F 100% 30.29 in 10.0 mi Calm Calm - N/A   Unknown
6:15 AM 38.5 °F 38.5 °F 100% 30.29 in 10.0 mi Calm Calm - N/A   Unknown
6:35 AM 37.8 °F 37.8 °F 100% 30.29 in 10.0 mi Calm Calm - N/A   Unknown
6:55 AM 39.4 °F 39.4 °F 100% 30.29 in 10.0 mi Calm Calm - N/A   Unknown
7:15 AM 40.6 °F 40.6 °F 100% 30.29 in 10.0 mi Calm Calm - N/A   Unknown
7:35 AM 41.5 °F 41.5 °F 100% 30.30 in 10.0 mi Calm Calm - N/A   Unknown
7:55 AM 43.3 °F 43.3 °F 100% 30.30 in 10.0 mi Calm Calm - N/A   Unknown
8:15 AM 45.9 °F 44.2 °F 94% 30.31 in 10.0 mi Calm Calm - N/A   Unknown
8:35 AM 48.2 °F 42.3 °F 80% 30.31 in 10.0 mi Calm Calm - N/A   Unknown
8:55 AM 51.1 °F 45.0 °F 80% 30.31 in 10.0 mi Calm Calm - N/A   Unknown
9:35 AM 56.5 °F 42.8 °F 60% 30.32 in 10.0 mi Calm Calm - N/A   Unknown
9:55 AM 59.0 °F 43.0 °F 55% 30.32 in 10.0 mi Calm Calm - N/A   Unknown
10:15 AM 61.0 °F 43.2 °F 52% 30.32 in 10.0 mi Calm Calm - N/A   Clear
10:35 AM 62.8 °F 43.7 °F 50% 30.31 in 10.0 mi Calm Calm - N/A   Clear
10:55 AM 64.0 °F 43.2 °F 47% 30.31 in 10.0 mi Calm Calm - N/A   Clear
11:15 AM 65.8 °F 43.0 °F 43% 30.30 in 10.0 mi Calm Calm - N/A   Clear
11:35 AM 66.4 °F 43.0 °F 43% 30.29 in 10.0 mi Calm Calm - N/A   Clear
12:15 PM 68.0 °F 43.2 °F 41% 30.27 in 10.0 mi Calm Calm - N/A   Unknown
12:35 PM 68.9 °F 43.5 °F 40% 30.26 in 10.0 mi NW 4.6 mph - N/A   Unknown
12:55 PM 68.5 °F 43.5 °F 40% 30.25 in 10.0 mi Calm Calm - N/A   Unknown
1:15 PM 69.3 °F 44.4 °F 41% 30.24 in 10.0 mi North 4.6 mph - N/A   Clear
1:35 PM 69.1 °F 44.2 °F 41% 30.23 in 10.0 mi North 4.6 mph - N/A   Clear
1:55 PM 69.8 °F 44.4 °F 40% 30.22 in 10.0 mi Calm Calm - N/A   Clear
2:15 PM 69.6 °F 44.6 °F 41% 30.21 in 10.0 mi Calm Calm - N/A   Clear
2:35 PM 69.4 °F 44.8 °F 41% 30.21 in 10.0 mi Calm Calm - N/A   Clear
3:15 PM 69.8 °F 44.6 °F 40% 30.21 in 10.0 mi NNW 4.6 mph - N/A   Clear
3:35 PM 69.4 °F 44.6 °F 41% 30.20 in 10.0 mi Calm Calm - N/A   Clear
4:15 PM 68.5 °F 45.0 °F 43% 30.19 in 10.0 mi Calm Calm - N/A   Unknown
4:35 PM 64.8 °F 52.2 °F 64% 30.19 in 10.0 mi Calm Calm - N/A   Unknown
4:55 PM 61.3 °F 53.1 °F 74% 30.19 in 10.0 mi Calm Calm - N/A   Unknown
5:15 PM 59.5 °F 53.1 °F 79% 30.19 in 10.0 mi Calm Calm - N/A   Unknown
5:35 PM 56.7 °F 56.7 °F 100% 30.19 in 10.0 mi Calm Calm - N/A   Unknown
5:55 PM 54.7 °F 54.7 °F 100% 30.20 in 10.0 mi Calm Calm - N/A   Unknown
6:15 PM 54.3 °F 54.3 °F 100% 30.20 in 10.0 mi Calm Calm - N/A   Unknown
6:35 PM 51.6 °F 51.6 °F 100% 30.21 in 10.0 mi Calm Calm - N/A   Unknown
6:55 PM 51.8 °F 51.8 °F 100% 30.21 in 10.0 mi Calm Calm - N/A   Unknown
7:15 PM 51.4 °F 51.4 °F 100% 30.22 in 10.0 mi Calm Calm - N/A   Unknown
7:35 PM 50.9 °F 50.9 °F 100% 30.21 in 10.0 mi Calm Calm - N/A   Unknown
7:55 PM 49.5 °F 49.5 °F 100% 30.22 in 7.0 mi Calm Calm - N/A   Unknown
8:15 PM 49.1 °F 49.1 °F 100% 30.22 in 10.0 mi Calm Calm - N/A   Unknown
8:35 PM 48.4 °F 48.4 °F 100% 30.22 in 10.0 mi Calm Calm - N/A   Unknown
8:55 PM 48.6 °F 48.6 °F 100% 30.22 in 10.0 mi Calm Calm - N/A   Unknown
9:15 PM 47.8 °F 47.8 °F 100% 30.22 in 10.0 mi Calm Calm - N/A   Unknown
9:35 PM 46.9 °F 46.9 °F 100% 30.22 in 7.0 mi Calm Calm - N/A   Unknown
9:55 PM 46.8 °F 46.8 °F 100% 30.21 in 10.0 mi Calm Calm - N/A   Unknown
10:15 PM 45.1 °F 45.1 °F 100% 30.22 in 10.0 mi Calm Calm - N/A   Unknown
10:35 PM 45.9 °F 45.9 °F 100% 30.22 in 10.0 mi Calm Calm - N/A   Unknown
10:55 PM 46.6 °F 46.6 °F 100% 30.22 in 10.0 mi Calm Calm - N/A   Unknown
11:15 PM 47.3 °F 47.3 °F 100% 30.21 in 10.0 mi Calm Calm - N/A   Unknown
11:35 PM 47.7 °F 47.7 °F 100% 30.21 in 10.0 mi Calm Calm - N/A   Unknown